STARLINK-36307, 68306

Orbit data source: Space-Track

STARLINK-36307, 68306 is a payload satellite owned by SpaceX/Seattle (US) in SSO that was launched on Fri, 20 Mar 2026 UTC via an FALCON 9 launch vehicle from the Air Force Western Test Range (AFWTR). Payload-class satellites include a variety of spacecraft equipped with specific instruments for various scientific and technological missions. These include communications satellites like Starlink; space stations such as the ISS; scientific satellites like the Hubble; Earth observation satellites from companies like Planet Labs, Umbra, and HawkEye 360; GPS; miniature CubeSats for education and research; and military/defense satellites.

Loading next visibility...
Identifier
68306, 2026-057N
Orbit
SSO
Country
Flag of USUS
Related business
Manufacturer
SpaceX/Seattle
Mission
Operational spacecraft
Bus & Motor
STARLINK V2MO, Unknown motor
Mass
575 kg wet, ~530 kg dry
Launch date (UTC)
2026-03-20 (3 months ago)
Launch vehicle
FALCON 9
Launch site
Air Force Western Test Range (AFWTR)
Object type
Payload
Rocket body
Debris
Shape & HBR
Unknown shape, 17.7 m
Radar Cross Section
Large (>1 m²)

Expand to show TLE details & history
Last TLE update: 12 hours ago

TLE from 12 hours ago
0 STARLINK-36307
1 68306U 26057N   26171.36569529  .00012708  00000-0  39517-3 0  9991
2 68306  97.2852 298.0631 0001355  96.1330 264.0067 15.33455905 14395
Epoch: 2026-06-20T08:46Z
TLE epoch observation values (Epoch: 2026-06-20T08:46:36.073Z)
Latitude
-0.00001°
Longitude
-102.16856°
Altitude
468.72 km
Speed
7.632 km/s
True Right ascension
19h 52m 15s
True Declination
0° 00' 00"
Sunlit
Object was in full shadow at epoch
Visualization orbit readout
Latitude
Unknown
Longitude
Unknown
Altitude
Unknown
Speed
Unknown
Apparent Right ascension
Unknown
Apparent Declination
Unknown
Sunlit
N/A
Visualization observer readout
Local Sidereal Time
07:20:43
Azimuth
Unknown
Elevation
Unknown
Doppler factor
Unknown
Orbital elements
Apogee altitude
463.38 km
Perigee altitude
461.527 km
Semi-major axis
6,840.59 km
Eccentricity
0.00014
Inclination
97.2852°
RAAN
298.0631°
Arg. of periapsis
96.133°
True anomaly
263.99126°
Mean anomaly
264.0067°
Eccentric anomaly
263.99898°
Mean motion
3.83621 °/min
Orbital period
93.84 mins
BSTAR
0.00039517
Loading maneuver chart data...
Computing Atmospheric mass density...
Loading historical data...
Loading historical data...
Loading historical data...
Loading historical data...
Loading historical data...
Loading historical data...
Loading historical data...

Documentation

Showing up to 5 results
|